TimeEST,TemperatureF,Dew PointF,Humidity,Sea Level PressureIn,VisibilityMPH,Wind Direction,Wind SpeedMPH,Gust SpeedMPH,PrecipitationIn,Events,Conditions,WindDirDegrees,DateUTC
12:53 AM,42.1,26.1,53,29.91,10.0,NNE,3.5,-,N/A,,Overcast,20,2013-03-02 05:53:00
1:53 AM,41.0,27.0,57,29.90,10.0,North,6.9,-,N/A,,Overcast,360,2013-03-02 06:53:00
2:53 AM,41.0,27.0,57,29.89,10.0,North,10.4,-,N/A,,Overcast,350,2013-03-02 07:53:00
3:53 AM,39.9,28.0,63,29.88,10.0,NNW,5.8,-,0.00,Rain,Light Rain,340,2013-03-02 08:53:00
4:45 AM,37.4,30.2,75,29.87,10.0,NNW,8.1,-,0.00,Rain,Light Rain,340,2013-03-02 09:45:00
4:53 AM,37.9,30.0,73,29.88,10.0,North,10.4,-,0.00,Rain,Light Rain,350,2013-03-02 09:53:00
5:53 AM,37.0,32.0,82,29.89,10.0,North,6.9,-,0.00,,Overcast,360,2013-03-02 10:53:00
6:53 AM,36.0,33.1,89,29.89,10.0,North,6.9,-,0.00,Rain,Light Rain,10,2013-03-02 11:53:00
7:53 AM,36.0,33.1,89,29.91,9.0,NNE,6.9,-,0.00,Snow,Light Snow,20,2013-03-02 12:53:00
8:35 AM,35.6,33.8,93,29.90,10.0,North,4.6,-,0.00,Rain,Light Rain,360,2013-03-02 13:35:00
8:53 AM,37.0,33.1,86,29.92,10.0,NNE,5.8,-,0.00,Snow,Light Snow,20,2013-03-02 13:53:00
9:24 AM,37.4,33.8,87,29.90,10.0,NNE,4.6,-,0.00,,Overcast,20,2013-03-02 14:24:00
9:53 AM,39.0,33.1,79,29.91,10.0,NE,5.8,-,0.00,,Overcast,50,2013-03-02 14:53:00
10:53 AM,41.0,32.0,70,29.91,10.0,SSE,3.5,-,N/A,,Overcast,160,2013-03-02 15:53:00
11:53 AM,42.1,33.1,70,29.90,10.0,ESE,6.9,-,N/A,,Overcast,110,2013-03-02 16:53:00
12:53 PM,44.1,30.9,60,29.88,10.0,South,4.6,-,N/A,,Overcast,170,2013-03-02 17:53:00
1:49 PM,39.2,32.0,75,29.86,10.0,WNW,8.1,17.3,0.00,Rain,Light Rain,300,2013-03-02 18:49:00
1:53 PM,39.9,33.1,77,29.87,10.0,NW,8.1,-,0.00,Rain,Light Rain,310,2013-03-02 18:53:00
2:11 PM,41.0,33.8,76,29.86,10.0,West,11.5,-,0.00,,Overcast,270,2013-03-02 19:11:00
2:53 PM,42.1,32.0,67,29.86,10.0,WSW,4.6,-,0.00,,Overcast,250,2013-03-02 19:53:00
3:53 PM,43.0,30.0,60,29.86,10.0,SW,4.6,-,N/A,,Overcast,220,2013-03-02 20:53:00
4:53 PM,42.1,30.9,65,29.87,10.0,SW,9.2,-,N/A,,Overcast,220,2013-03-02 21:53:00
5:53 PM,43.0,24.1,47,29.88,10.0,North,8.1,-,N/A,,Overcast,350,2013-03-02 22:53:00
6:53 PM,41.0,25.0,53,29.90,10.0,North,9.2,-,N/A,,Overcast,360,2013-03-02 23:53:00
8:53 PM,39.0,23.0,53,29.94,10.0,North,9.2,-,N/A,,Overcast,350,2013-03-03 01:53:00
9:53 PM,37.0,21.0,52,29.96,10.0,North,6.9,-,N/A,,Overcast,360,2013-03-03 02:53:00
10:53 PM,35.1,21.0,57,29.96,10.0,North,6.9,-,N/A,,Clear,350,2013-03-03 03:53:00
11:53 PM,33.1,19.0,56,29.96,10.0,North,9.2,-,N/A,,Clear,350,2013-03-03 04:53:00